Weather History for Chadron, NE

Change the Weather History Date:

Saturday, November 16, 2013

  Actual Average Record
Temperature  
Mean Temperature 37 °F 34 °F  
Max Temperature 52 °F 48 °F 72 °F (1953)
Min Temperature 22 °F 19 °F -8 °F (1959)
Degree Days  
Heating Degree Days 28 31  
Month to date heating degree days 421 440  
Since 1 July heating degree days 1142 1193  
Cooling Degree Days 0 0  
Month to date cooling degree days 0 0  
Year to date cooling degree days 917 712  
Moisture  
Dew Point 24 °F    
Average Humidity 59    
Maximum Humidity 88    
Minimum Humidity 30    
Precipitation  
Precipitation 0.00 in 0.02 in 0.27 in (1958)
Month to date precipitation 0.28 0.39  
Year to date precipitation 18.90 17.30  
Sea Level Pressure  
Sea Level Pressure 29.41 in    
Wind  
Wind Speed 6 mph (WSW)    
Max Wind Speed 23 mph    
Max Gust Speed 30 mph    
Visibility 10 miles    
Events      
T = Trace of Precipitation, MM = Missing Value Source: NWS Daily Summary

Daily Weather History Graph

Daily Weather History Graph

Search for Another Location

Airport:

Trip Planner

Search our weather history database for the weather conditions in past years. The results will help you decide how hot, cold, wet, or windy it might be!

Date:

Astronomy

Nov. 16, 2013 Rise Set
Actual Time 6:46 AM MST 4:28 PM MST
Civil Twilight 6:15 AM MST 4:58 PM MST
Nautical Twilight 5:41 AM MST 5:32 PM MST
Astronomical Twilight 5:07 AM MST 6:06 PM MST
Moon 4:05 PM MST (11/16) 5:43 AM MST (11/16)
Length of Visible Light 10h 43m
Length of Day
9h 42m
Waxing Gibbous, 99% of the Moon is Illuminated
Nov 16
Waxing Gibbous
Nov 17
Full
Nov 25
Last Quarter
Dec 2
New
Dec 9
First Quarter

Hourly Weather History & Observations

Time (MST) Temp. Windchill Dew Point Humidity Pressure Visibility Wind Dir Wind Speed Gust Speed Precip Events Conditions
12:53 AM 36.0 °F 30.3 °F 28.0 °F 73% 29.39 in 10.0 mi SW 6.9 mph - N/A   Clear
1:53 AM 30.9 °F 23.5 °F 26.1 °F 82% 29.40 in 10.0 mi SW 8.1 mph - N/A   Clear
2:53 AM 30.9 °F 23.5 °F 25.0 °F 79% 29.38 in 10.0 mi West 8.1 mph - N/A   Clear
3:53 AM 28.0 °F 21.7 °F 23.0 °F 81% 29.41 in 10.0 mi West 5.8 mph - N/A   Clear
4:53 AM 27.0 °F 19.5 °F 21.9 °F 81% 29.44 in 10.0 mi WSW 6.9 mph - N/A   Clear
5:53 AM 25.0 °F 19.3 °F 21.0 °F 85% 29.45 in 10.0 mi SSW 4.6 mph - N/A   Clear
6:53 AM 23.0 °F 17.0 °F 19.0 °F 85% 29.44 in 10.0 mi West 4.6 mph - N/A   Clear
7:53 AM 30.0 °F - 24.1 °F 79% 29.43 in 10.0 mi Calm Calm - N/A   Clear
8:53 AM 34.0 °F - 28.0 °F 79% 29.40 in 10.0 mi Calm Calm - N/A   Clear
9:53 AM 39.0 °F - 25.0 °F 57% 29.39 in 10.0 mi Calm Calm - N/A   Clear
10:53 AM 44.1 °F 40.8 °F 21.9 °F 42% 29.38 in 10.0 mi WNW 5.8 mph - N/A   Partly Cloudy
11:53 AM 46.0 °F 43.1 °F 21.9 °F 39% 29.36 in 10.0 mi WNW 5.8 mph - N/A   Mostly Cloudy
12:53 PM 48.9 °F - 21.9 °F 35% 29.34 in 10.0 mi WNW 5.8 mph - N/A   Clear
1:53 PM 51.1 °F - 21.0 °F 31% 29.33 in 10.0 mi West 10.4 mph - N/A   Clear
2:53 PM 51.1 °F - 25.0 °F 36% 29.34 in 10.0 mi West 13.8 mph - N/A   Clear
3:53 PM 50.0 °F - 23.0 °F 35% 29.37 in 10.0 mi West 12.7 mph - N/A   Clear
4:53 PM 45.0 °F 39.7 °F 25.0 °F 46% 29.40 in 10.0 mi West 10.4 mph - N/A   Mostly Cloudy
5:53 PM 37.9 °F 34.4 °F 25.0 °F 60% 29.44 in 10.0 mi WSW 4.6 mph - N/A   Partly Cloudy
6:53 PM 37.0 °F 31.6 °F 26.1 °F 65% 29.46 in 10.0 mi SW 6.9 mph - N/A   Clear
7:53 PM 37.0 °F 33.3 °F 26.1 °F 65% 29.45 in 10.0 mi WSW 4.6 mph - N/A   Clear
8:53 PM 36.0 °F 33.3 °F 25.0 °F 64% 29.46 in 10.0 mi SSW 3.5 mph - N/A   Clear
9:53 PM 34.0 °F 29.8 °F 25.0 °F 70% 29.45 in 10.0 mi WSW 4.6 mph - N/A   Clear
10:53 PM 30.0 °F - 24.1 °F 79% 29.47 in 10.0 mi Calm Calm - N/A   Clear
11:53 PM 28.9 °F - 24.1 °F 82% 29.47 in 10.0 mi Calm Calm - N/A   Clear